| time (UTC) | temp F | wind direction | speed MPH | gust MPH | rain 1hr in | rain 24hr in | rain mn in | humidity % | barometer mb |
| 20260504035423 | 55 | 110 | 0.0 | 1.0 | 0.00 | 0.00 | 0.00 | 47 | 1001.8 |
| 20260504034919 | 56 | 98 | 0.0 | 0.0 | 0.00 | 0.00 | 0.00 | 47 | 1002.0 |
| 20260504034417 | 56 | 107 | 0.0 | 0.0 | 0.00 | 0.00 | 0.00 | 46 | 1002.0 |
| 20260504033914 | 56 | 118 | 0.0 | 1.0 | 0.00 | 0.00 | 0.00 | 45 | 1002.0 |
| 20260504033412 | 56 | 106 | 0.0 | 1.0 | 0.00 | 0.00 | 0.00 | 46 | 1002.2 |
| 20260504032908 | 56 | 90 | 0.0 | 0.0 | 0.00 | 0.00 | 0.00 | 45 | 1002.4 |
| 20260504032405 | 56 | 99 | 0.0 | 0.0 | 0.00 | 0.00 | 0.00 | 43 | 1002.5 |
| 20260504031902 | 57 | 99 | 0.0 | 0.0 | 0.00 | 0.00 | 0.00 | 42 | 1002.5 |
| 20260504031359 | 57 | 99 | 0.0 | 0.0 | 0.00 | 0.00 | 0.00 | 43 | 1002.6 |
| 20260504030855 | 57 | 99 | 0.0 | 1.0 | 0.00 | 0.00 | 0.00 | 43 | 1002.7 |
| 20260504030353 | 56 | 182 | 0.0 | 0.0 | 0.00 | 0.00 | 0.00 | 45 | 1003.0 |
| 20260504025848 | 55 | 182 | 0.0 | 0.0 | 0.00 | 0.00 | 0.00 | 46 | 1002.7 |
| 20260504025346 | 56 | 182 | 0.0 | 0.0 | 0.00 | 0.00 | 0.00 | 46 | 1002.8 |
| 20260504024842 | 56 | 182 | 0.0 | 0.0 | 0.00 | 0.00 | 0.00 | 44 | 1002.8 |
| 20260504024339 | 56 | 182 | 0.0 | 0.0 | 0.00 | 0.00 | 0.00 | 44 | 1003.0 |
| 20260504023836 | 56 | 203 | 0.0 | 0.0 | 0.00 | 0.00 | 0.00 | 44 | 1002.8 |
| 20260504023333 | 56 | 203 | 0.0 | 0.0 | 0.00 | 0.00 | 0.00 | 43 | 1002.8 |
| 20260504022828 | 57 | 203 | 0.0 | 0.0 | 0.00 | 0.00 | 0.00 | 41 | 1003.1 |
| 20260504022325 | 58 | 203 | 0.0 | 0.0 | 0.00 | 0.00 | 0.00 | 40 | 1003.2 |
| 20260504021821 | 56 | 203 | 0.0 | 0.0 | 0.00 | 0.00 | 0.00 | 41 | 1003.1 |
| 20260504021320 | 57 | 203 | 0.0 | 0.0 | 0.00 | 0.00 | 0.00 | 41 | 1003.2 |
| 20260504020816 | 58 | 203 | 0.0 | 0.0 | 0.00 | 0.00 | 0.00 | 40 | 1003.0 |
| 20260504020313 | 58 | 210 | 0.0 | 0.0 | 0.00 | 0.00 | 0.00 | 40 | 1002.8 |
| 20260504015808 | 59 | 210 | 0.0 | 0.0 | 0.00 | 0.00 | 0.00 | 40 | 1003.1 |
| 20260504015305 | 60 | 210 | 0.0 | 0.0 | 0.00 | 0.00 | 0.00 | 39 | 1003.1 |
| 20260504014801 | 60 | 210 | 0.0 | 0.0 | 0.00 | 0.00 | 0.00 | 39 | 1003.1 |
| 20260504014257 | 61 | 210 | 0.0 | 0.0 | 0.00 | 0.00 | 0.00 | 38 | 1003.0 |
| 20260504013755 | 61 | 198 | 0.0 | 0.0 | 0.00 | 0.00 | 0.00 | 37 | 1003.1 |
| 20260504013253 | 62 | 209 | 0.0 | 1.0 | 0.00 | 0.00 | 0.00 | 36 | 1003.2 |
| 20260504012749 | 63 | 228 | 0.0 | 3.0 | 0.00 | 0.00 | 0.00 | 35 | 1003.2 |
| 20260504012247 | 64 | 252 | 2.0 | 2.0 | 0.00 | 0.00 | 0.00 | 34 | 1003.1 |
| 20260504011744 | 63 | 242 | 1.0 | 2.0 | 0.00 | 0.00 | 0.00 | 34 | 1003.1 |
| 20260504011240 | 64 | 221 | 0.0 | 2.0 | 0.00 | 0.00 | 0.00 | 34 | 1003.0 |
| 20260504010736 | 64 | 229 | 0.0 | 2.0 | 0.00 | 0.00 | 0.00 | 34 | 1003.2 |
| 20260504010232 | 64 | 230 | 0.0 | 1.0 | 0.00 | 0.00 | 0.00 | 33 | 1003.1 |
| 20260504005729 | 65 | 229 | 0.0 | 1.0 | 0.00 | 0.00 | 0.00 | 33 | 1003.3 |
| 20260504005227 | 65 | 235 | 0.0 | 0.0 | 0.00 | 0.00 | 0.00 | 33 | 1003.1 |
| 20260504004724 | 66 | 232 | 0.0 | 0.0 | 0.00 | 0.00 | 0.00 | 32 | 1003.2 |
| 20260504004221 | 66 | 277 | 2.0 | 3.0 | 0.00 | 0.00 | 0.00 | 31 | 1003.3 |
| 20260504003717 | 67 | 220 | 1.0 | 2.0 | 0.00 | 0.00 | 0.00 | 31 | 1003.2 |
| 20260504003215 | 67 | 260 | 2.0 | 3.0 | 0.00 | 0.00 | 0.00 | 30 | 1003.2 |
| 20260504002711 | 68 | 272 | 3.0 | 4.0 | 0.00 | 0.00 | 0.00 | 29 | 1003.3 |
| 20260504002208 | 68 | 243 | 6.0 | 7.0 | 0.00 | 0.00 | 0.00 | 28 | 1003.3 |
| 20260504001706 | 68 | 234 | 3.0 | 4.0 | 0.00 | 0.00 | 0.00 | 29 | 1003.6 |
| 20260504001202 | 67 | 232 | 2.0 | 3.0 | 0.00 | 0.00 | 0.00 | 30 | 1003.7 |
| 20260504000659 | 67 | 299 | 1.0 | 2.0 | 0.00 | 0.00 | 0.00 | 30 | 1003.6 |
| 20260504000156 | 66 | 277 | 2.0 | 4.0 | 0.00 | 0.00 | 0.00 | 30 | 1003.5 |
| 20260503235654 | 67 | 246 | 3.0 | 4.0 | 0.00 | 0.00 | 0.00 | 30 | 1003.6 |
| 20260503235151 | 67 | 307 | 2.0 | 7.0 | 0.00 | 0.00 | 0.00 | 30 | 1003.5 |
| 20260503234649 | 67 | 296 | 2.0 | 4.0 | 0.00 | 0.00 | 0.00 | 30 | 1003.4 |
| 20260503234147 | 68 | 295 | 4.0 | 8.0 | 0.00 | 0.00 | 0.00 | 28 | 1003.5 |
| 20260503233643 | 69 | 268 | 4.0 | 8.0 | 0.00 | 0.00 | 0.00 | 28 | 1003.5 |
| 20260503233139 | 70 | 288 | 4.0 | 4.0 | 0.00 | 0.00 | 0.00 | 28 | 1003.6 |
| 20260503232636 | 69 | 296 | 1.0 | 2.0 | 0.00 | 0.00 | 0.00 | 28 | 1003.7 |
| 20260503232134 | 69 | 259 | 6.0 | 8.0 | 0.00 | 0.00 | 0.00 | 27 | 1003.6 |
| 20260503231632 | 69 | 259 | 3.0 | 6.0 | 0.00 | 0.00 | 0.00 | 28 | 1003.8 |
| 20260503231128 | 70 | 285 | 3.0 | 6.0 | 0.00 | 0.00 | 0.00 | 28 | 1003.7 |
| 20260503230625 | 70 | 268 | 2.0 | 6.0 | 0.00 | 0.00 | 0.00 | 27 | 1003.9 |
| 20260503230122 | 70 | 235 | 6.0 | 7.0 | 0.00 | 0.00 | 0.00 | 28 | 1003.7 |
| 20260503225620 | 70 | 249 | 1.0 | 3.0 | 0.00 | 0.00 | 0.00 | 29 | 1003.6 |
| 20260503225119 | 70 | 285 | 3.0 | 11.0 | 0.00 | 0.00 | 0.00 | 28 | 1003.8 |
| 20260503224617 | 70 | 343 | 0.0 | 3.0 | 0.00 | 0.00 | 0.00 | 29 | 1004.0 |
| 20260503224114 | 70 | 267 | 1.0 | 8.0 | 0.00 | 0.00 | 0.00 | 26 | 1004.0 |
| 20260503223612 | 69 | 303 | 4.0 | 9.0 | 0.00 | 0.00 | 0.00 | 27 | 1003.9 |
| 20260503223107 | 70 | 222 | 8.0 | 10.0 | 0.00 | 0.00 | 0.00 | 27 | 1004.0 |
| 20260503222606 | 69 | 244 | 2.0 | 4.0 | 0.00 | 0.00 | 0.00 | 26 | 1003.9 |
| 20260503222103 | 70 | 287 | 6.0 | 8.0 | 0.00 | 0.00 | 0.00 | 26 | 1004.0 |
| 20260503221601 | 70 | 318 | 2.0 | 3.0 | 0.00 | 0.00 | 0.00 | 30 | 1004.1 |
| 20260503221059 | 69 | 284 | 1.0 | 10.0 | 0.00 | 0.00 | 0.00 | 28 | 1004.2 |
| 20260503220555 | 69 | 276 | 2.0 | 10.0 | 0.00 | 0.00 | 0.00 | 28 | 1004.1 |
| 20260503220052 | 69 | 289 | 3.0 | 9.0 | 0.00 | 0.00 | 0.00 | 27 | 1004.2 |
| 20260503215549 | 69 | 318 | 9.0 | 10.0 | 0.00 | 0.00 | 0.00 | 26 | 1004.2 |
| 20260503215046 | 69 | 292 | 7.0 | 10.0 | 0.00 | 0.00 | 0.00 | 26 | 1004.3 |
| 20260503214544 | 69 | 3 | 6.0 | 13.0 | 0.00 | 0.00 | 0.00 | 26 | 1004.5 |
| 20260503214040 | 69 | 239 | 4.0 | 15.0 | 0.00 | 0.00 | 0.00 | 25 | 1004.2 |
| 20260503213539 | 69 | 293 | 8.0 | 10.0 | 0.00 | 0.00 | 0.00 | 25 | 1004.3 |
| 20260503213035 | 69 | 232 | 5.0 | 13.0 | 0.00 | 0.00 | 0.00 | 24 | 1004.3 |
| 20260503212532 | 69 | 322 | 2.0 | 10.0 | 0.00 | 0.00 | 0.00 | 27 | 1004.4 |
| 20260503212030 | 70 | 308 | 5.0 | 10.0 | 0.00 | 0.00 | 0.00 | 24 | 1004.4 |
| 20260503211527 | 70 | 302 | 4.0 | 10.0 | 0.00 | 0.00 | 0.00 | 25 | 1004.5 |
| 20260503211022 | 70 | 300 | 4.0 | 9.0 | 0.00 | 0.00 | 0.00 | 27 | 1004.4 |
| 20260503210519 | 70 | 302 | 1.0 | 7.0 | 0.00 | 0.00 | 0.00 | 26 | 1004.6 |
| 20260503210015 | 70 | 14 | 2.0 | 6.0 | 0.00 | 0.00 | 0.00 | 26 | 1004.4 |
| 20260503205512 | 70 | 283 | 4.0 | 6.0 | 0.00 | 0.00 | 0.00 | 26 | 1004.5 |
| 20260503205008 | 69 | 252 | 0.0 | 6.0 | 0.00 | 0.00 | 0.00 | 28 | 1004.7 |
| 20260503204505 | 69 | 296 | 2.0 | 7.0 | 0.00 | 0.00 | 0.00 | 27 | 1004.7 |
| 20260503204002 | 68 | 1 | 5.0 | 7.0 | 0.00 | 0.00 | 0.00 | 27 | 1004.8 |
| 20260503203459 | 68 | 199 | 6.0 | 8.0 | 0.00 | 0.00 | 0.00 | 24 | 1004.7 |
| 20260503202956 | 68 | 358 | 2.0 | 4.0 | 0.00 | 0.00 | 0.00 | 24 | 1004.6 |
| 20260503202454 | 68 | 26 | 6.0 | 9.0 | 0.00 | 0.00 | 0.00 | 25 | 1004.6 |
| 20260503201952 | 68 | 2 | 8.0 | 16.0 | 0.00 | 0.00 | 0.00 | 25 | 1004.8 |
| 20260503201449 | 68 | 2 | 2.0 | 10.0 | 0.00 | 0.00 | 0.00 | 25 | 1004.8 |
| 20260503200947 | 68 | 349 | 6.0 | 8.0 | 0.00 | 0.00 | 0.00 | 26 | 1005.0 |
| 20260503200443 | 67 | 4 | 6.0 | 9.0 | 0.00 | 0.00 | 0.00 | 24 | 1005.0 |
| 20260503195939 | 67 | 323 | 6.0 | 13.0 | 0.00 | 0.00 | 0.00 | 24 | 1005.1 |
| 20260503195437 | 68 | 344 | 6.0 | 11.0 | 0.00 | 0.00 | 0.00 | 26 | 1005.0 |
| 20260503194933 | 68 | 291 | 7.0 | 10.0 | 0.00 | 0.00 | 0.00 | 22 | 1005.2 |
| 20260503194431 | 67 | 340 | 3.0 | 9.0 | 0.00 | 0.00 | 0.00 | 24 | 1004.9 |
| 20260503193926 | 68 | 336 | 5.0 | 11.0 | 0.00 | 0.00 | 0.00 | 25 | 1004.9 |
| 20260503193421 | 68 | 301 | 5.0 | 7.0 | 0.00 | 0.00 | 0.00 | 26 | 1005.0 |
| 20260503192917 | 68 | 4 | 5.0 | 9.0 | 0.00 | 0.00 | 0.00 | 28 | 1005.2 |
| 20260503192414 | 68 | 51 | 3.0 | 9.0 | 0.00 | 0.00 | 0.00 | 28 | 1005.3 |
| 20260503191910 | 68 | 286 | 8.0 | 13.0 | 0.00 | 0.00 | 0.00 | 29 | 1005.3 |
| 20260503191408 | 68 | 285 | 7.0 | 9.0 | 0.00 | 0.00 | 0.00 | 28 | 1005.4 |
| 20260503190904 | 68 | 44 | 8.0 | 11.0 | 0.00 | 0.00 | 0.00 | 29 | 1005.4 |
| 20260503190401 | 67 | 302 | 1.0 | 7.0 | 0.00 | 0.00 | 0.00 | 29 | 1005.3 |
| 20260503185858 | 67 | 298 | 2.0 | 8.0 | 0.00 | 0.00 | 0.00 | 32 | 1005.5 |
| 20260503185354 | 68 | 281 | 7.0 | 11.0 | 0.00 | 0.00 | 0.00 | 28 | 1005.5 |
| 20260503184854 | 67 | 359 | 2.0 | 9.0 | 0.00 | 0.00 | 0.00 | 30 | 1005.6 |
| 20260503184350 | 67 | 305 | 4.0 | 9.0 | 0.00 | 0.00 | 0.00 | 30 | 1005.6 |
| 20260503183846 | 67 | 57 | 5.0 | 11.0 | 0.00 | 0.00 | 0.00 | 27 | 1005.4 |
| 20260503183343 | 67 | 304 | 3.0 | 8.0 | 0.00 | 0.00 | 0.00 | 27 | 1005.4 |
| 20260503182840 | 67 | 278 | 6.0 | 13.0 | 0.00 | 0.00 | 0.00 | 24 | 1005.5 |
| 20260503182340 | 66 | 286 | 4.0 | 11.0 | 0.00 | 0.00 | 0.00 | 31 | 1005.7 |
| 20260503181836 | 67 | 336 | 4.0 | 10.0 | 0.00 | 0.00 | 0.00 | 27 | 1005.5 |
| 20260503181333 | 67 | 177 | 7.0 | 10.0 | 0.00 | 0.00 | 0.00 | 25 | 1005.9 |
| 20260503180830 | 67 | 325 | 7.0 | 14.0 | 0.00 | 0.00 | 0.00 | 28 | 1005.9 |
| 20260503180328 | 67 | 327 | 6.0 | 15.0 | 0.00 | 0.00 | 0.00 | 28 | 1005.7 |
| 20260503175824 | 66 | 337 | 5.0 | 7.0 | 0.00 | 0.00 | 0.00 | 27 | 1005.8 |
| 20260503175322 | 66 | 332 | 4.0 | 14.0 | 0.00 | 0.00 | 0.00 | 34 | 1005.9 |
| 20260503174817 | 66 | 276 | 5.0 | 14.0 | 0.00 | 0.00 | 0.00 | 37 | 1006.0 |
| 20260503174316 | 66 | 345 | 9.0 | 11.0 | 0.00 | 0.00 | 0.00 | 37 | 1005.9 |
| 20260503173811 | 66 | 309 | 6.0 | 14.0 | 0.00 | 0.00 | 0.00 | 39 | 1006.0 |
| 20260503173307 | 66 | 322 | 2.0 | 7.0 | 0.00 | 0.00 | 0.00 | 38 | 1006.0 |
| 20260503172804 | 66 | 311 | 7.0 | 10.0 | 0.00 | 0.00 | 0.00 | 38 | 1006.0 |
| 20260503172301 | 65 | 291 | 9.0 | 11.0 | 0.00 | 0.00 | 0.00 | 38 | 1006.0 |
| 20260503171758 | 66 | 244 | 5.0 | 8.0 | 0.00 | 0.00 | 0.00 | 40 | 1006.1 |
| 20260503171254 | 66 | 312 | 4.0 | 10.0 | 0.00 | 0.00 | 0.00 | 42 | 1006.1 |
| 20260503170751 | 67 | 337 | 6.0 | 13.0 | 0.00 | 0.00 | 0.00 | 39 | 1006.0 |
| 20260503170248 | 66 | 272 | 6.0 | 9.0 | 0.00 | 0.00 | 0.00 | 41 | 1005.9 |
| 20260503160210 | 64 | 9 | 4.0 | 10.0 | 0.00 | 0.00 | 0.00 | 44 | 1005.9 |
| 20260503150641 | 62 | 18 | 4.0 | 10.0 | 0.00 | 0.00 | 0.00 | 46 | 1005.5 |
| 20260503150136 | 62 | 328 | 4.0 | 11.0 | 0.00 | 0.00 | 0.00 | 48 | 1005.5 |
| 20260503131030 | 57 | 275 | 4.0 | 7.0 | 0.00 | 0.00 | 0.00 | 52 | 1005.2 |
| 20260503130527 | 57 | 248 | 2.0 | 3.0 | 0.00 | 0.00 | 0.00 | 52 | 1005.1 |
| 20260503110418 | 44 | 113 | 0.0 | 0.0 | 0.00 | 0.00 | 0.00 | 81 | 1004.1 |
| 20260503090320 | 50 | 5 | 0.0 | 0.0 | 0.00 | 0.00 | 0.00 | 68 | 1004.6 |
| 20260503081248 | 54 | 147 | 0.0 | 1.0 | 0.00 | 0.00 | 0.00 | 58 | 1004.6 |
| 20260503080743 | 54 | 161 | 0.0 | 0.0 | 0.00 | 0.00 | 0.00 | 57 | 1004.7 |
| 20260503080242 | 54 | 117 | 0.0 | 1.0 | 0.00 | 0.00 | 0.00 | 57 | 1004.6 |
| 20260503072718 | 55 | 90 | 1.0 | 3.0 | 0.00 | 0.00 | 0.00 | 55 | 1004.9 |
| 20260503072214 | 55 | 123 | 1.0 | 2.0 | 0.00 | 0.00 | 0.00 | 54 | 1004.9 |
| 20260503071711 | 55 | 108 | 0.0 | 4.0 | 0.00 | 0.00 | 0.00 | 54 | 1005.0 |
| 20260503071208 | 55 | 162 | 1.0 | 3.0 | 0.00 | 0.00 | 0.00 | 53 | 1005.2 |
| 20260503070705 | 55 | 114 | 1.0 | 3.0 | 0.00 | 0.00 | 0.00 | 53 | 1005.2 |
| 20260503070203 | 55 | 132 | 0.0 | 1.0 | 0.00 | 0.00 | 0.00 | 53 | 1005.4 |
| 20260503060127 | 56 | 139 | 3.0 | 6.0 | 0.00 | 0.00 | 0.00 | 51 | 1006.3 |
| 20260503055119 | 57 | 186 | 0.0 | 0.0 | 0.00 | 0.00 | 0.00 | 50 | 1006.8 |
| 20260503054615 | 57 | 104 | 2.0 | 4.0 | 0.00 | 0.00 | 0.00 | 50 | 1006.7 |
| 20260503054111 | 57 | 219 | 0.0 | 2.0 | 0.00 | 0.00 | 0.00 | 51 | 1006.9 |
| 20260503053610 | 57 | 209 | 0.0 | 1.0 | 0.00 | 0.00 | 0.00 | 50 | 1006.8 |
| 20260503053108 | 57 | 177 | 1.0 | 2.0 | 0.00 | 0.00 | 0.00 | 49 | 1006.8 |
| 20260503052604 | 57 | 131 | 1.0 | 3.0 | 0.00 | 0.00 | 0.00 | 49 | 1006.9 |
| 20260503052100 | 57 | 142 | 1.0 | 2.0 | 0.00 | 0.00 | 0.00 | 49 | 1006.7 |
| 20260503051555 | 58 | 154 | 2.0 | 4.0 | 0.00 | 0.00 | 0.00 | 49 | 1007.0 |
| 20260503051054 | 58 | 160 | 0.0 | 1.0 | 0.00 | 0.00 | 0.00 | 49 | 1007.0 |
| 20260503050549 | 58 | 150 | 2.0 | 3.0 | 0.00 | 0.00 | 0.00 | 49 | 1007.0 |
| 20260503050047 | 58 | 104 | 0.0 | 2.0 | 0.00 | 0.00 | 0.00 | 49 | 1007.1 |
| 20260503045544 | 58 | 136 | 1.0 | 4.0 | 0.00 | 0.00 | 0.00 | 49 | 1007.1 |
| 20260503045041 | 58 | 133 | 0.0 | 3.0 | 0.00 | 0.00 | 0.00 | 50 | 1007.0 |
| 20260503044538 | 58 | 117 | 0.0 | 2.0 | 0.00 | 0.00 | 0.00 | 49 | 1007.4 |
| 20260503044035 | 58 | 119 | 0.0 | 2.0 | 0.00 | 0.00 | 0.00 | 49 | 1007.4 |
| 20260503043531 | 58 | 172 | 0.0 | 0.0 | 0.00 | 0.00 | 0.00 | 49 | 1007.4 |
| 20260503043028 | 58 | 122 | 0.0 | 1.0 | 0.00 | 0.00 | 0.00 | 48 | 1007.5 |
| 20260503042525 | 58 | 175 | 0.0 | 2.0 | 0.00 | 0.00 | 0.00 | 48 | 1007.5 |
| 20260503042021 | 59 | 153 | 0.0 | 1.0 | 0.00 | 0.00 | 0.00 | 48 | 1007.4 |
| 20260503041518 | 59 | 130 | 1.0 | 3.0 | 0.00 | 0.00 | 0.00 | 48 | 1007.4 |
| 20260503041016 | 59 | 143 | 1.0 | 2.0 | 0.00 | 0.00 | 0.00 | 46 | 1007.6 |
| 20260503040513 | 60 | 166 | 0.0 | 2.0 | 0.00 | 0.00 | 0.00 | 46 | 1007.8 |
| 20260503040010 | 60 | 143 | 1.0 | 3.0 | 0.00 | 0.00 | 0.00 | 45 | 1008.0 |